This is the latest recevied weather packets stored in our database for station/object KD7CIH. If no packets are shown the sender has not sent any weather packets the latest 10 day(s).
| Time | Temp. | Humidity | Pressure | Rain* | Wind** | Luminosity | Snow |
|---|---|---|---|---|---|---|---|
| 1777694107 | 7.22° C | 43% | 1016.8 hPa | 0 mm | - | - | - |
| 1777693807 | 7.22° C | 43% | 1016.8 hPa | 0 mm | - | - | - |
| 1777693508 | 7.22° C | 42% | 1016.6 hPa | 0 mm | - | - | - |
| 1777693334 | 7.22° C | 42% | 1016.6 hPa | 0 mm | - | - | - |
| 1777692907 | 7.22° C | 41% | 1016.4 hPa | 0 mm | - | - | - |
| 1777692611 | 7.22° C | 40% | 1016.4 hPa | 0 mm | - | - | - |
| 1777692307 | 7.78° C | 41% | 1016.3 hPa | 0 mm | - | - | - |
| 1777692007 | 7.22° C | 41% | 1016 hPa | 0 mm | - | - | - |
| 1777691706 | 7.78° C | 41% | 1016.1 hPa | 0 mm | - | - | - |
| 1777691407 | 8.33° C | 37% | 1016 hPa | 0 mm | - | - | - |
| 1777691235 | 8.89° C | 33% | 1015.9 hPa | 0 mm | - | - | - |
| 1777690806 | 8.89° C | 33% | 1015.8 hPa | 0 mm | - | - | - |
| 1777690647 | 9.44° C | 33% | 1015.8 hPa | 0 mm | - | - | - |
| 1777690334 | 9.44° C | 33% | 1015.8 hPa | 0 mm | - | - | - |
| 1777689907 | 9.44° C | 32% | 1015.5 hPa | 0 mm | - | - | - |
| 1777689607 | 9.44° C | 32% | 1015.5 hPa | 0 mm | - | - | - |
| 1777689310 | 9.44° C | 35% | 1015.5 hPa | 0 mm | - | - | - |
| 1777689007 | 9.44° C | 37% | 1015.5 hPa | 0 mm | - | - | - |
| 1777688707 | 10° C | 36% | 1015.5 hPa | 0 mm | - | - | - |
| 1777688406 | 10.56° C | 34% | 1015.4 hPa | 0 mm | - | - | - |
| 1777688110 | 10.56° C | 32% | 1015.4 hPa | 0 mm | - | - | - |
| 1777687807 | 10.56° C | 31% | 1015.3 hPa | 0 mm | - | - | - |
| 1777687507 | 11.11° C | 32% | 1015.3 hPa | 0 mm | - | - | - |
| 1777687206 | 11.67° C | 31% | 1015.3 hPa | 0 mm | - | - | - |
| 1777686906 | 12.22° C | 29% | 1015.3 hPa | 0 mm | - | - | - |
* Rain latest hour (hover to see other rain measurements)
** Current wind speed in m/s (hover to see current wind gust speed)